Location: Ostrava
(49.8330°N, 18.2830°E)
Time: 01:22:33
(UTC+02:00)

Transit 2A - All Passes

Search period start: 27 April 2017 00:00
Search period end: 07 May 2017 00:00
Orbit: 602 x 958 km, 66.7° (Epoch: 25 April)

Date Brightness Start Highest point End Pass type
(mag) Time Alt. Az. Time Alt. Az. Time Alt. Az.
27 Apr - 01:43:45 10° NW 01:46:02 14° NNW 01:48:21 10° N visible
27 Apr - 05:13:23 10° NNW 05:16:23 17° NNE 05:19:29 10° ENE daylight
27 Apr - 06:55:47 10° NNW 07:00:20 67° NE 07:05:15 10° SE daylight
27 Apr - 08:39:40 10° WNW 08:43:07 20° WSW 08:46:45 10° SSW daylight
27 Apr - 21:42:19 10° SSE 21:45:08 17° ESE 21:47:55 10° ENE visible
27 Apr - 23:23:20 10° SW 23:27:46 70° NW 23:32:07 10° NNE visible
28 Apr - 01:08:52 10° WNW 01:11:42 17° NNW 01:14:34 10° NNE visible
28 Apr - 04:39:35 10° N 04:42:04 14° NNE 04:44:35 10° ENE visible
28 Apr - 06:21:50 10° NNW 06:26:15 48° NE 06:31:01 10° ESE daylight
28 Apr - 08:05:14 10° NW 08:09:14 29° WSW 08:13:32 10° S daylight
28 Apr - 21:10:05 10° ESE 21:11:21 11° ESE 21:12:36 10° E visible
28 Apr - 22:49:18 10° SSW 22:53:45 82° SE 22:58:07 10° NE visible
29 Apr - 00:34:08 10° W 00:37:26 20° NNW 00:40:45 10° NNE visible
29 Apr - 04:05:51 10° N 04:07:42 12° NNE 04:09:34 10° NE visible
29 Apr - 05:47:55 10° NNW 05:52:08 36° NE 05:56:39 10° ESE daylight
29 Apr - 07:30:59 10° NW 07:35:20 41° WSW 07:40:03 10° S daylight
29 Apr - 22:15:25 10° SSW 22:19:47 56° ESE 22:24:03 10° NE visible
29 Apr - 23:59:30 10° W 00:03:12 26° NW 00:06:54 10° NNE visible
30 Apr - 01:47:34 10° NNW 01:47:57 10° NNW 01:48:20 10° N visible
30 Apr - 03:32:15 10° N 03:33:18 11° NNE 03:34:21 10° NNE visible
30 Apr - 05:14:02 10° NNW 05:17:58 28° NE 05:22:09 10° E daylight
30 Apr - 06:56:51 10° NW 07:01:23 58° WSW 07:06:20 10° SSE daylight
30 Apr - 21:41:44 10° S 21:45:51 38° ESE 21:49:53 10° NE visible
30 Apr - 23:25:01 10° WSW 23:29:01 33° NW 23:33:01 10° NNE visible
01 May - 01:12:04 10° NW 01:13:32 11° NNW 01:15:01 10° N visible
01 May - 04:40:10 10° NNW 04:43:45 22° NE 04:47:32 10° E visible
01 May - 06:22:47 10° NW 06:27:24 82° WSW 06:32:27 10° SSE daylight
01 May - 08:07:43 10° W 08:09:56 13° WSW 08:12:14 10° SW daylight
01 May - 21:08:15 10° S 21:11:58 26° ESE 21:15:36 10° ENE visible
01 May - 22:50:39 10° WSW 22:54:53 45° NW 22:59:06 10° NNE visible
02 May - 00:37:00 10° NW 00:39:10 13° NNW 00:41:20 10° N visible
02 May - 04:06:20 10° NNW 04:09:29 18° NNE 04:12:47 10° ENE visible
02 May - 05:48:47 10° NNW 05:53:23 73° NE 05:58:24 10° SE daylight
02 May - 07:32:49 10° WNW 07:36:07 19° WSW 07:39:38 10° SSW daylight
02 May - 20:35:06 10° SSE 20:38:07 18° ESE 20:41:06 10° ENE visible
02 May - 22:16:26 10° SW 22:20:48 64° NW 22:25:08 10° NNE visible
03 May - 00:02:06 10° WNW 00:04:50 16° NNW 00:07:34 10° NNE visible
03 May - 03:32:31 10° N 03:35:10 15° NNE 03:37:56 10° ENE visible
03 May - 05:14:49 10° NNW 05:19:19 53° NE 05:24:12 10° SE daylight
03 May - 06:58:19 10° WNW 07:02:16 27° WSW 07:06:30 10° S daylight
03 May - 20:02:34 10° SE 20:04:20 12° ESE 20:06:04 10° E daylight
03 May - 21:42:21 10° SW 21:46:47 89° ESE 21:51:09 10° NE visible
03 May - 23:27:20 10° W 23:30:31 19° NNW 23:33:45 10° NNE visible
04 May - 02:58:46 10° N 03:00:50 13° NNE 03:02:57 10° NE visible
04 May - 04:40:54 10° NNW 04:45:12 39° NE 04:49:52 10° ESE visible
04 May - 06:24:02 10° NW 06:28:22 38° WSW 06:33:04 10° S daylight
04 May - 21:08:26 10° SSW 21:12:47 62° ESE 21:17:06 10° NE visible
04 May - 22:52:41 10° W 22:56:17 24° NW 22:59:54 10° NNE visible
05 May - 02:25:04 10° N 02:26:26 11° NNE 02:27:50 10° NE visible
05 May - 04:07:00 10° NNW 04:11:03 30° NE 04:15:23 10° ESE visible
05 May - 05:49:52 10° NW 05:54:26 54° WSW 05:59:24 10° SSE daylight
05 May - 20:34:41 10° S 20:38:51 42° ESE 20:42:58 10° NE daylight
05 May - 22:18:09 10° WSW 22:22:05 31° NW 22:26:02 10° NNE visible
06 May - 00:05:21 10° NW 00:06:40 11° NNW 00:08:00 10° N visible
06 May - 03:33:07 10° NNW 03:36:51 24° NE 03:40:48 10° E visible
06 May - 05:15:48 10° NW 05:20:27 76° SW 05:25:33 10° SSE daylight
06 May - 07:01:02 10° W 07:02:56 12° WSW 07:04:54 10° SW daylight
06 May - 20:01:10 10° S 20:04:57 28° ESE 20:08:42 10° NE daylight
06 May - 21:43:46 10° WSW 21:47:56 42° NW 21:52:06 10° NNE visible
06 May - 23:30:16 10° NW 23:32:17 13° NNW 23:34:19 10° N visible
